This demonstration page uses our WeatherBlox Daily Observations layout. Learn more.

Left ArrowRight Arrow

34.74481, -87.66753

Hourly Observations for May 7, 2021

Temp ( °F °C ) Dew Point ( °F °C ) Humidity (%) Winds ( mph kmh ) Pressure ( in mb ) Visibility ( mi km ) Precip ( " mm )
12:41 am 00:41 Mostly Clear with Mist and Fog 54 12.2 50 10 87 87 NNW 6 9 30.11 1020 5 8 0.00 0.00
12:53 am 00:53 Mostly Clear 54 12.2 50 10 87 87 N 6 9 30.10 1019 10 16 0.00 0.00
1:53 am 01:53 Partly Cloudy 54 12.2 48 8.9 80 80 VRB 3 6 30.09 1019 10 16 0.00 0.00
2:53 am 02:53 Clear 53 11.7 47 8.3 80 80 NNW 5 7 30.10 1019 10 16 0.00 0.00
3:53 am 03:53 Clear 52 11.1 47 8.3 83 83 NNW 5 7 30.11 1020 10 16 0.00 0.00
4:53 am 04:53 Mostly Clear 51 10.6 46 7.8 83 83 NW 3 6 30.11 1020 10 16 0.00 0.00
5:53 am 05:53 Clear 50 10 45 7.2 83 83 Calm 30.13 1020 10 16 0.00 0.00
6:53 am 06:53 Sunny 51 10.6 46 7.8 83 83 Calm 30.15 1021 10 16 0.00 0.00
7:53 am 07:53 Sunny 55 12.8 46 7.8 72 72 WNW 5 7 30.18 1022 10 16 0.00 0.00
8:53 am 08:53 Sunny 58 14.4 45 7.2 62 62 WNW 5 7 30.20 1023 10 16 0.00 0.00
9:44 am 09:44 Mostly Sunny 61 16.1 45 7.2 56 56 VRB 5 7 30.21 1023 N/A 0.00 0.00
9:53 am 09:53 Sunny 62 16.7 44 6.7 52 52 NW 8 13 30.19 1023 N/A 0.00 0.00
10:53 am 10:53 Sunny 66 18.9 40 4.4 39 39 NNW 8 13 30.20 1023 10 16 0.00 0.00
11:53 am 11:53 Partly Cloudy 65 18.3 38 3.3 37 37 VRB 3 6 30.19 1022 10 16 0.00 0.00
12:53 pm 12:53 Sunny 69 20.6 34 1.1 27 27 NW 5 7 30.17 1022 10 16 0.00 0.00
1:53 pm 13:53 Sunny 69 20.6 34 1.1 27 27 VRB 3 6 30.15 1021 10 16 0.00 0.00
2:53 pm 14:53 Sunny 70 21.1 34 1.1 27 27 VRB 5 7 30.13 1020 10 16 0.00 0.00
3:53 pm 15:53 Sunny 71 21.7 35 1.7 27 27 VRB 5 7 30.11 1020 10 16 0.00 0.00
5:53 pm 17:53 Sunny 71 21.7 36 2.2 28 28 NW 8 13 30.09 1019 10 16 0.00 0.00
6:53 pm 18:53 Sunny 68 20 37 2.8 32 32 WNW 5 7 30.07 1018 10 16 0.00 0.00
7:53 pm 19:53 Clear 62 16.7 41 5 46 46 Calm 30.07 1018 10 16 0.00 0.00
8:53 pm 20:53 Clear 56 13.3 45 7.2 67 67 Calm 30.06 1018 10 16 0.00 0.00
9:53 pm 21:53 Clear 56 13.3 46 7.8 70 70 Calm 30.09 1019 10 16 0.00 0.00
10:53 pm 22:53 Clear 56 13.3 44 6.7 65 65 SW 5 7 30.09 1019 10 16 0.00 0.00
11:53 pm 23:53 Mostly Cloudy 54 12.2 43 6.1 67 67 Calm 30.09 1019 10 16 0.00 0.00

Powered by AerisWeather